Simultaneous Nadir Overpasses (SNOs) Predictions

Prediction of SNOs between GOES-16 and AQUA Satellite Orbit:

Table of predicted SNOs for the next 14.0 days since TLE Epoch: 7/20/2024
Index Date Time (GOES-16) GOES-16 Lat,Lon AQUA Lat,Lon Distance(km) Time Diff (sec)
1 07/20/2024 07:20:15 0.05, -75.21 0.33, -76.45 141.17 80
2 07/22/2024 07:00:46 0.04, -75.22 -0.56, -72.34 327.33 80
3 07/22/2024 19:23:36 -0.05, -75.21 -0.50, -77.22 229.17 78
4 07/24/2024 19:06:48 -0.05, -75.23 0.41, -73.11 241.04 80
5 07/25/2024 07:26:51 0.05, -75.24 0.64, -77.96 309.21 80
6 07/27/2024 07:07:20 0.04, -75.27 -0.28, -73.84 162.27 80
7 07/27/2024 19:27:30 -0.04, -75.26 -0.79, -78.72 393.64 80
8 07/29/2024 19:13:17 -0.04, -75.29 0.10, -74.60 78.73 80
9 07/30/2024 07:33:20 0.04, -75.31 0.91, -79.45 471.01 80
10 08/01/2024 07:13:46 0.02, -75.34 0.02, -75.32 2.14 80
